• în România
  • Lista ţărilor
  • Pe 7 zile
  • Temperatura apei
  • Hartă satelitară
  • Meteo pe hartă
  • Widget-uri
  • user-avatar
    Intrare

    Meteo pe oră la Rogatyy Prud

    Astăzi, 26 Septembrie, Miercuri

    Timp Temperatura Precipitaţii Vânt Presiune Umiditate
    00:00 +7°C° 0 mm 3 m/s 747 mmHg 84%
    01:00 +7°C° 0 mm 3 m/s 747 mmHg 85%
    02:00 +5°C° 0 mm 3 m/s 748 mmHg 86%
    03:00 +5°C° 0 mm 3 m/s 748 mmHg 87%
    04:00 +5°C° 0 mm 3 m/s 748 mmHg 87%
    05:00 +4°C° 0 mm 3 m/s 749 mmHg 87%
    06:00 +4°C° 0 mm 3 m/s 749 mmHg 88%
    07:00 +7°C° 0 mm 3 m/s 750 mmHg 80%
    08:00 +8°C° 0 mm 3 m/s 750 mmHg 72%
    09:00 +10°C° 0 mm 4 m/s 751 mmHg 63%
    10:00 +11°C° 0 mm 4 m/s 751 mmHg 59%
    11:00 +11°C° 0 mm 4 m/s 751 mmHg 56%
    12:00 +12°C° 0 mm 4 m/s 752 mmHg 52%
    13:00 +12°C° 0 mm 4 m/s 752 mmHg 52%
    14:00 +12°C° 0 mm 4 m/s 752 mmHg 52%
    15:00 +12°C° 0 mm 4 m/s 752 mmHg 52%
    16:00 +11°C° 0 mm 3 m/s 753 mmHg 56%
    17:00 +10°C° 0 mm 3 m/s 753 mmHg 60%
    18:00 +9°C° 0 mm 2 m/s 753 mmHg 63%
    19:00 +8°C° 0 mm 2 m/s 753 mmHg 66%
    20:00 +8°C° 0 mm 2 m/s 753 mmHg 68%
    21:00 +7°C° 0 mm 2 m/s 753 mmHg 70%
    22:00 +7°C° 0 mm 2 m/s 753 mmHg 71%
    23:00 +6°C° 0 mm 2 m/s 753 mmHg 72%

    Mâine, 27 Septembrie, Joi

    Timp Temperatura Precipitaţii Vânt Presiune Umiditate
    00:00 +5°C° 0 mm 3 m/s 753 mmHg 73%
    01:00 +5°C° 0 mm 3 m/s 753 mmHg 73%
    02:00 +4°C° 0 mm 3 m/s 752 mmHg 74%
    03:00 +4°C° 0 mm 4 m/s 752 mmHg 74%
    04:00 +4°C° 0 mm 4 m/s 751 mmHg 72%
    05:00 +3°C° 0 mm 5 m/s 751 mmHg 70%
    06:00 +3°C° 0 mm 6 m/s 750 mmHg 69%
    07:00 +4°C° 0 mm 6 m/s 750 mmHg 64%
    08:00 +5°C° 0 mm 7 m/s 749 mmHg 59%
    09:00 +6°C° 0 mm 8 m/s 749 mmHg 55%
    10:00 +6°C° 0.1 mm 9 m/s 748 mmHg 54%
    11:00 +6°C° 0.1 mm 9 m/s 747 mmHg 53%
    12:00 +7°C° 0.1 mm 9 m/s 747 mmHg 53%
    13:00 +7°C° 0.2 mm 9 m/s 746 mmHg 56%
    14:00 +7°C° 0.2 mm 9 m/s 746 mmHg 59%
    15:00 +7°C° 0.2 mm 9 m/s 746 mmHg 62%
    16:00 +7°C° 0.1 mm 9 m/s 746 mmHg 66%
    17:00 +7°C° 0.1 mm 8 m/s 745 mmHg 69%
    18:00 +7°C° 0.1 mm 8 m/s 745 mmHg 72%
    19:00 +8°C° 0 mm 7 m/s 745 mmHg 74%
    20:00 +8°C° 0 mm 7 m/s 746 mmHg 76%
    21:00 +8°C° 0 mm 6 m/s 746 mmHg 78%
    22:00 +8°C° 0 mm 6 m/s 746 mmHg 81%
    23:00 +8°C° 0 mm 6 m/s 746 mmHg 84%

    Poimâine, 28 Septembrie, Vineri

    Timp Temperatura Precipitaţii Vânt Presiune Umiditate
    00:00 +7°C° 0 mm 6 m/s 747 mmHg 87%
    01:00 +7°C° 0 mm 5 m/s 747 mmHg 89%
    02:00 +7°C° 0 mm 5 m/s 747 mmHg 91%
    03:00 +6°C° 0 mm 5 m/s 747 mmHg 93%
    04:00 +6°C° 0 mm 5 m/s 747 mmHg 94%
    05:00 +6°C° 0 mm 4 m/s 747 mmHg 95%
    06:00 +6°C° 0 mm 4 m/s 747 mmHg 96%
    07:00 +7°C° 0 mm 5 m/s 747 mmHg 89%
    08:00 +8°C° 0 mm 5 m/s 747 mmHg 83%
    09:00 +10°C° 0 mm 5 m/s 747 mmHg 77%
    10:00 +11°C° 0 mm 6 m/s 747 mmHg 69%
    11:00 +14°C° 0 mm 7 m/s 747 mmHg 60%
    12:00 +15°C° 0 mm 7 m/s 747 mmHg 52%
    13:00 +16°C° 0 mm 7 m/s 746 mmHg 51%
    14:00 +16°C° 0 mm 8 m/s 746 mmHg 51%
    15:00 +17°C° 0 mm 8 m/s 745 mmHg 51%
    16:00 +16°C° 0 mm 7 m/s 745 mmHg 55%
    17:00 +15°C° 0 mm 6 m/s 745 mmHg 59%
    18:00 +14°C° 0 mm 5 m/s 744 mmHg 63%
    19:00 +14°C° 0 mm 6 m/s 744 mmHg 65%
    20:00 +13°C° 0 mm 6 m/s 744 mmHg 67%
    21:00 +13°C° 0 mm 6 m/s 744 mmHg 69%
    22:00 +13°C° 0 mm 6 m/s 744 mmHg 70%
    23:00 +13°C° 0 mm 6 m/s 744 mmHg 72%

    29 Septembrie, Sâmbătă

    Timp Temperatura Precipitaţii Vânt Presiune Umiditate
    00:00 +13°C° 0 mm 6 m/s 744 mmHg 73%
    01:00 +12°C° 0 mm 5 m/s 744 mmHg 76%
    02:00 +12°C° 0 mm 5 m/s 745 mmHg 78%
    03:00 +12°C° 0 mm 4 m/s 745 mmHg 81%
    04:00 +12°C° 0 mm 4 m/s 745 mmHg 83%
    05:00 +11°C° 0 mm 3 m/s 746 mmHg 84%
    06:00 +12°C° 0 mm 2 m/s 746 mmHg 86%
    07:00 +12°C° 0.1 mm 2 m/s 746 mmHg 83%
    08:00 +12°C° 0.1 mm 2 m/s 747 mmHg 80%
    09:00 +10°C° 0.1 mm 2 m/s 747 mmHg 77%
    10:00 +10°C° 0.2 mm 2 m/s 747 mmHg 76%
    11:00 +10°C° 0.2 mm 2 m/s 747 mmHg 75%
    12:00 +10°C° 0.2 mm 2 m/s 747 mmHg 74%
    13:00 +10°C° 0.3 mm 2 m/s 747 mmHg 75%
    14:00 +10°C° 0.3 mm 2 m/s 747 mmHg 76%
    15:00 +10°C° 0.3 mm 2 m/s 747 mmHg 78%
    16:00 +9°C° 0.5 mm 2 m/s 747 mmHg 79%
    17:00 +9°C° 0.5 mm 2 m/s 748 mmHg 81%
    18:00 +9°C° 0.5 mm 2 m/s 748 mmHg 83%
    19:00 +9°C° 0.5 mm 3 m/s 748 mmHg 84%
    20:00 +8°C° 0.5 mm 3 m/s 749 mmHg 85%
    21:00 +8°C° 0.5 mm 3 m/s 749 mmHg 86%
    22:00 +7°C° 0.7 mm 4 m/s 749 mmHg 85%
    23:00 +7°C° 0.7 mm 4 m/s 750 mmHg 83%

    30 Septembrie, Duminică

    Timp Temperatura Precipitaţii Vânt Presiune Umiditate
    00:00 +6°C° 0.7 mm 4 m/s 750 mmHg 82%
    01:00 +6°C° 0.4 mm 4 m/s 750 mmHg 81%
    02:00 +6°C° 0.4 mm 4 m/s 751 mmHg 79%
    03:00 +7°C° 0.4 mm 3 m/s 751 mmHg 78%
    04:00 +5°C° 0.2 mm 3 m/s 751 mmHg 77%
    05:00 +5°C° 0.2 mm 3 m/s 752 mmHg 77%
    06:00 +5°C° 0.2 mm 3 m/s 752 mmHg 76%
    07:00 +5°C° 0 mm 4 m/s 752 mmHg 70%
    08:00 +6°C° 0 mm 4 m/s 753 mmHg 65%
    09:00 +6°C° 0 mm 5 m/s 753 mmHg 59%
    10:00 +7°C° 0 mm 5 m/s 753 mmHg 54%
    11:00 +8°C° 0 mm 5 m/s 754 mmHg 49%
    12:00 +9°C° 0 mm 5 m/s 754 mmHg 44%
    13:00 +9°C° 0 mm 5 m/s 754 mmHg 42%
    14:00 +10°C° 0 mm 4 m/s 754 mmHg 41%
    15:00 +11°C° 0 mm 4 m/s 753 mmHg 40%
    16:00 +10°C° 0 mm 4 m/s 754 mmHg 43%
    17:00 +8°C° 0 mm 3 m/s 754 mmHg 47%
    18:00 +7°C° 0 mm 2 m/s 754 mmHg 51%
    19:00 +7°C° 0 mm 2 m/s 754 mmHg 52%
    20:00 +7°C° 0 mm 1 m/s 755 mmHg 54%
    21:00 +6°C° 0 mm 1 m/s 755 mmHg 55%
    22:00 +6°C° 0 mm 1 m/s 755 mmHg 55%
    23:00 +6°C° 0 mm 1 m/s 755 mmHg 56%

    1 Octombrie, Luni

    Timp Temperatura Precipitaţii Vânt Presiune Umiditate
    00:00 +5°C° 0 mm 0 m/s 755 mmHg 56%
    01:00 +5°C° 0 mm 1 m/s 755 mmHg 57%
    02:00 +5°C° 0 mm 1 m/s 755 mmHg 57%
    03:00 +5°C° 0 mm 1 m/s 755 mmHg 58%
    04:00 +5°C° 0 mm 1 m/s 755 mmHg 58%
    05:00 +4°C° 0 mm 1 m/s 755 mmHg 59%
    06:00 +4°C° 0 mm 1 m/s 755 mmHg 59%
    07:00 +5°C° 0 mm 2 m/s 755 mmHg 56%
    08:00 +6°C° 0 mm 2 m/s 755 mmHg 53%
    09:00 +8°C° 0 mm 2 m/s 756 mmHg 50%
    10:00 +9°C° 0 mm 2 m/s 755 mmHg 46%
    11:00 +10°C° 0 mm 2 m/s 755 mmHg 42%
    12:00 +13°C° 0 mm 2 m/s 755 mmHg 37%
    13:00 +13°C° 0 mm 2 m/s 755 mmHg 36%
    14:00 +14°C° 0 mm 2 m/s 755 mmHg 35%
    15:00 +14°C° 0 mm 2 m/s 754 mmHg 33%
    16:00 +13°C° 0 mm 2 m/s 754 mmHg 37%
    17:00 +10°C° 0 mm 2 m/s 754 mmHg 40%
    18:00 +10°C° 0 mm 1 m/s 754 mmHg 44%
    19:00 +8°C° 0 mm 2 m/s 754 mmHg 45%
    20:00 +8°C° 0 mm 2 m/s 754 mmHg 47%
    21:00 +7°C° 0 mm 2 m/s 754 mmHg 48%
    22:00 +7°C° 0 mm 2 m/s 754 mmHg 49%
    23:00 +6°C° 0 mm 2 m/s 754 mmHg 50%
    Arată mai mult